Погода в Треминой

Россия / Иркутская область     56°43′05″N   98°03′18″E
темп.,
°C
ветер,
м/с
пор.,
м/с
влажн.,
%
обл.,
%
осадки,
мм/ч
давл.,
гПа
погр.,
м
23 апреля, пт
пт2323:00−5св239132 0.0 104242
02:00−5св25905 0.0 104367
05:00−7всв11945 0.0 104422
08:00−2в12690 0.0 104599
11:00+4всв23520 0.0 10451086
14:00+6всв23475 0.0 10431394
17:00+6всв33473 0.0 10421351
20:00+2св26770 0.0 1042105
24 апреля, сб
сб2423:00−2всв27845 0.0 1043111
02:00−3всв2686100 0.0 1041103
05:00−2всв31176100 0.0 1039210
08:00+1всв41169100 0.0 1037406
11:00+4в4858100 0.0 1035788
14:00+6всв4758100 0.0 10311310
17:00+4в3670100 0.1 1030851
20:00+1ссв2495100 0.8 1028153
25 апреля, вс
вс2523:000сз24100100 1.0 1027197
02:000з2598100 2.5 1026334
05:000з2596100 0.1 1025415
08:00+1з3798100 0.3 1026311
11:00+1зюз4896100 0.3 1026715
14:00+3з588899 0.4 1025865
17:00+2з31097100 0.4 1025486
20:00+1з4998100 0.6 1025630
26 апреля, пн
пн2623:00+1з41098100 0.3 1025590
02:00+1з41098100 0.8 1025603
05:000з4109486 0.0 1025509
08:00+1з41194100 0.1 1026549
11:00+2зсз4997100 0.3 1026695
14:00+2зсз41097100 0.6 1027633
17:00+2зсз4890100 0.3 10281074
20:00+2з498779 0.3 1028425
27 апреля, вт
вт2723:00−2зюз139670 0.0 102948
02:00−3юз119943 0.0 102920
05:00−3ю119957 0.0 102915
08:00+1зюз129056 0.0 1028195
11:00+5зюз237052 0.0 1026889
14:00+7ююз2365100 0.0 10241163
17:00+8юв2366100 0.0 1021871
20:00+4вюв2589100 0.0 1020108